When you browse on this site, cookies collect data to enhance your experience and personalize the content and advertising you see.
Visit our Privacy Policy to learn more. By continuing to use the site, you agree to this use of cookies and data.
  • In Latvia
  • List of Countries
  • For 7 days
  • Water Temperature
  • Weather Map
  • Weather Widgets
  • user-avatar
    Login

    Hourly Weather Leshni

    Today, 23 February, Sunday

    Time Temperature Precipitation Wind Pressure Humidity
    00:00 0°C° 0.6 mm 8 mps 732 mmHg 90%
    01:00 0°C° 0.6 mm 7 mps 732 mmHg 86%
    02:00 +2°C° 0.6 mm 6 mps 732 mmHg 82%
    03:00 +1°C° 0.5 mm 6 mps 731 mmHg 82%
    04:00 +1°C° 0.5 mm 6 mps 731 mmHg 82%
    05:00 0°C° 0.5 mm 5 mps 731 mmHg 83%
    06:00 -1°C° 0 mm 6 mps 731 mmHg 81%
    07:00 -1°C° 0 mm 6 mps 731 mmHg 80%
    08:00 -1°C° 0 mm 6 mps 731 mmHg 79%
    09:00 -1°C° 0 mm 6 mps 731 mmHg 77%
    10:00 +1°C° 0 mm 6 mps 731 mmHg 75%
    11:00 +1°C° 0 mm 6 mps 731 mmHg 73%
    12:00 +1°C° 0.1 mm 6 mps 731 mmHg 73%
    13:00 0°C° 0.1 mm 7 mps 731 mmHg 73%
    14:00 +2°C° 0.1 mm 7 mps 731 mmHg 73%
    15:00 0°C° 0.1 mm 7 mps 731 mmHg 77%
    16:00 0°C° 0.1 mm 7 mps 730 mmHg 80%
    17:00 -1°C° 0.1 mm 6 mps 730 mmHg 83%
    18:00 -1°C° 0 mm 6 mps 730 mmHg 82%
    19:00 -1°C° 0 mm 6 mps 730 mmHg 81%
    20:00 0°C° 0 mm 5 mps 730 mmHg 80%
    21:00 0°C° 0.1 mm 5 mps 730 mmHg 84%
    22:00 0°C° 0.1 mm 5 mps 729 mmHg 89%
    23:00 -1°C° 0.1 mm 5 mps 729 mmHg 93%

    Tomorrow, 24 February, Monday

    Time Temperature Precipitation Wind Pressure Humidity
    00:00 -1°C° 0.1 mm 5 mps 729 mmHg 94%
    01:00 -1°C° 0.1 mm 4 mps 729 mmHg 94%
    02:00 -1°C° 0.1 mm 4 mps 729 mmHg 94%
    03:00 -1°C° 0 mm 4 mps 729 mmHg 93%
    04:00 -1°C° 0 mm 4 mps 729 mmHg 92%
    05:00 0°C° 0 mm 3 mps 729 mmHg 91%
    06:00 0°C° 0 mm 3 mps 729 mmHg 90%
    07:00 0°C° 0 mm 3 mps 730 mmHg 89%
    08:00 0°C° 0 mm 3 mps 731 mmHg 88%
    09:00 -1°C° 0 mm 4 mps 731 mmHg 85%
    10:00 -1°C° 0 mm 5 mps 732 mmHg 83%
    11:00 0°C° 0 mm 5 mps 732 mmHg 81%
    12:00 0°C° 0 mm 5 mps 733 mmHg 72%
    13:00 -1°C° 0 mm 6 mps 734 mmHg 64%
    14:00 +1°C° 0 mm 6 mps 734 mmHg 56%
    15:00 0°C° 0 mm 5 mps 735 mmHg 58%
    16:00 0°C° 0 mm 5 mps 736 mmHg 60%
    17:00 -1°C° 0 mm 4 mps 736 mmHg 62%
    18:00 -1°C° 0 mm 4 mps 737 mmHg 65%
    19:00 -2°C° 0 mm 4 mps 738 mmHg 68%
    20:00 -2°C° 0 mm 4 mps 738 mmHg 71%
    21:00 -3°C° 0 mm 4 mps 738 mmHg 73%
    22:00 -2°C° 0 mm 3 mps 739 mmHg 76%
    23:00 -2°C° 0 mm 3 mps 739 mmHg 78%

    Day after tomorrow, 25 February, Tuesday

    Time Temperature Precipitation Wind Pressure Humidity
    00:00 -2°C° 0 mm 3 mps 739 mmHg 78%
    01:00 -2°C° 0 mm 3 mps 739 mmHg 78%
    02:00 -3°C° 0 mm 2 mps 739 mmHg 78%
    03:00 -3°C° 0 mm 2 mps 739 mmHg 79%
    04:00 -3°C° 0 mm 2 mps 739 mmHg 80%
    05:00 -3°C° 0 mm 2 mps 738 mmHg 81%
    06:00 -3°C° 0 mm 2 mps 738 mmHg 80%
    07:00 -3°C° 0 mm 2 mps 738 mmHg 79%
    08:00 -3°C° 0 mm 2 mps 738 mmHg 78%
    09:00 -2°C° 0 mm 2 mps 737 mmHg 71%
    10:00 -1°C° 0 mm 3 mps 737 mmHg 64%
    11:00 0°C° 0 mm 3 mps 736 mmHg 57%
    12:00 +1°C° 0 mm 3 mps 736 mmHg 58%
    13:00 +1°C° 0 mm 3 mps 735 mmHg 58%
    14:00 +2°C° 0 mm 3 mps 735 mmHg 59%
    15:00 0°C° 0 mm 4 mps 734 mmHg 71%
    16:00 -1°C° 0 mm 4 mps 733 mmHg 83%
    17:00 -1°C° 0 mm 4 mps 733 mmHg 95%
    18:00 -1°C° 0.2 mm 4 mps 732 mmHg 95%
    19:00 -1°C° 0.2 mm 4 mps 731 mmHg 95%
    20:00 -1°C° 0.2 mm 5 mps 731 mmHg 96%
    21:00 -1°C° 0.3 mm 4 mps 730 mmHg 96%
    22:00 0°C° 0.3 mm 4 mps 730 mmHg 96%
    23:00 +1°C° 0.3 mm 3 mps 729 mmHg 96%

    26 February, Wednesday

    Time Temperature Precipitation Wind Pressure Humidity
    00:00 +1°C° 0 mm 3 mps 729 mmHg 95%
    01:00 0°C° 0 mm 3 mps 729 mmHg 94%
    02:00 +1°C° 0 mm 2 mps 729 mmHg 94%
    03:00 -1°C° 0 mm 2 mps 729 mmHg 94%
    04:00 -1°C° 0 mm 2 mps 729 mmHg 94%
    05:00 -2°C° 0 mm 2 mps 729 mmHg 94%
    06:00 -1°C° 0 mm 3 mps 729 mmHg 93%
    07:00 -1°C° 0 mm 3 mps 729 mmHg 93%
    08:00 -1°C° 0 mm 3 mps 729 mmHg 92%
    09:00 0°C° 0 mm 3 mps 729 mmHg 89%
    10:00 -1°C° 0 mm 4 mps 730 mmHg 87%
    11:00 0°C° 0 mm 4 mps 730 mmHg 84%
    12:00 0°C° 0 mm 4 mps 730 mmHg 80%
    13:00 0°C° 0 mm 4 mps 730 mmHg 76%
    14:00 +1°C° 0 mm 4 mps 731 mmHg 72%
    15:00 +2°C° 0 mm 3 mps 731 mmHg 74%
    16:00 +1°C° 0 mm 3 mps 731 mmHg 75%
    17:00 +2°C° 0 mm 2 mps 731 mmHg 77%
    18:00 +2°C° 0 mm 2 mps 732 mmHg 80%
    19:00 +1°C° 0 mm 2 mps 732 mmHg 83%
    20:00 -1°C° 0 mm 2 mps 733 mmHg 86%
    21:00 -1°C° 0 mm 2 mps 733 mmHg 87%
    22:00 +1°C° 0 mm 1 mps 733 mmHg 88%
    23:00 +1°C° 0 mm 1 mps 733 mmHg 89%

    27 February, Thursday

    Time Temperature Precipitation Wind Pressure Humidity
    00:00 +1°C° 0 mm 1 mps 733 mmHg 89%
    01:00 -1°C° 0 mm 2 mps 733 mmHg 88%
    02:00 -1°C° 0 mm 2 mps 733 mmHg 88%
    03:00 -1°C° 0 mm 2 mps 733 mmHg 88%
    04:00 -1°C° 0 mm 2 mps 733 mmHg 89%
    05:00 -1°C° 0 mm 2 mps 733 mmHg 90%
    06:00 -1°C° 0 mm 2 mps 733 mmHg 90%
    07:00 +1°C° 0 mm 1 mps 734 mmHg 90%
    08:00 +1°C° 0 mm 1 mps 734 mmHg 91%
    09:00 +2°C° 0 mm 1 mps 734 mmHg 87%
    10:00 +2°C° 0 mm 2 mps 734 mmHg 83%
    11:00 +3°C° 0 mm 2 mps 734 mmHg 78%
    12:00 +5°C° 0 mm 1 mps 734 mmHg 77%
    13:00 +5°C° 0 mm 1 mps 734 mmHg 75%
    14:00 +5°C° 0 mm 1 mps 735 mmHg 74%
    15:00 +5°C° 0 mm 1 mps 735 mmHg 79%
    16:00 +4°C° 0 mm 1 mps 735 mmHg 84%
    17:00 +3°C° 0 mm 1 mps 735 mmHg 89%
    18:00 +2°C° 0.4 mm 2 mps 735 mmHg 91%
    19:00 +1°C° 0.4 mm 2 mps 736 mmHg 94%
    20:00 +1°C° 0.4 mm 2 mps 736 mmHg 96%
    21:00 +1°C° 0 mm 2 mps 736 mmHg 94%
    22:00 +1°C° 0 mm 2 mps 737 mmHg 93%
    23:00 -1°C° 0 mm 2 mps 737 mmHg 91%

    28 February, Friday

    Time Temperature Precipitation Wind Pressure Humidity
    00:00 -1°C° 0 mm 2 mps 737 mmHg 91%
    01:00 -1°C° 0 mm 3 mps 737 mmHg 92%
    02:00 -2°C° 0 mm 3 mps 738 mmHg 93%
    03:00 -2°C° 0 mm 3 mps 738 mmHg 92%
    04:00 -2°C° 0 mm 3 mps 738 mmHg 90%
    05:00 -4°C° 0 mm 3 mps 738 mmHg 89%
    06:00 -4°C° 0 mm 3 mps 739 mmHg 88%
    07:00 -4°C° 0 mm 3 mps 739 mmHg 87%
    08:00 -4°C° 0 mm 3 mps 739 mmHg 86%
    09:00 -2°C° 0 mm 3 mps 740 mmHg 80%
    10:00 -2°C° 0 mm 3 mps 740 mmHg 74%
    11:00 -1°C° 0 mm 3 mps 740 mmHg 67%
    12:00 -1°C° 0 mm 3 mps 740 mmHg 64%
    13:00 0°C° 0 mm 3 mps 740 mmHg 60%
    14:00 0°C° 0 mm 3 mps 740 mmHg 57%
    15:00 0°C° 0 mm 3 mps 739 mmHg 60%
    16:00 0°C° 0 mm 3 mps 739 mmHg 64%
    17:00 -1°C° 0 mm 3 mps 739 mmHg 67%
    18:00 -2°C° 0 mm 4 mps 738 mmHg 68%
    19:00 -2°C° 0 mm 4 mps 738 mmHg 68%
    20:00 -2°C° 0 mm 5 mps 737 mmHg 69%
    21:00 -2°C° 0.2 mm 5 mps 737 mmHg 75%
    22:00 -3°C° 0.2 mm 6 mps 736 mmHg 82%
    23:00 -3°C° 0.2 mm 6 mps 736 mmHg 89%
    Show more